Status Flugplatz

Der Flugplatz ist offen
PPR Regelung ! PJE !!!

123.15 MHz
RWY 05/23

flüger beizli - Öffnungszeiten
Freitag ab 16:00
Samstag +Sonntag ab 11:00
Bei schönem Wetter öffnen wir früher! Tel.: 079 234 07 74

Herzlich willkommen auf der Homepage des Flugplatz Biel-Kappelen

Wir freuen uns über Ihren Besuch auf unserem schönen Flugplatz im Berner Seeland. Ob zu Fuss, per Velo, Motorrad, Auto oder Flugzeug Sie sind uns jederzeit herzlich willkommen. 


 

Wetter Kappelen

 


 

[source: ADDS]
METAR
LSZG 231020Z 23004KT 190V300 9999 SCT058 22/12 Q1021 NOSIG =
TAF
TAF LSZG 230825Z 2309/2318 25005KT 9999 FEW050 PROB30 TEMPO 2313/2318 FEW060TCU =
SR / SS: 03:46 / 19:11 UTC ( 2017-05-23)

 


 

Besucherzähler

HeuteHeute25
Seit BeginnSeit Beginn88462
Guests 1

Flugplatz Biel-Kappelen LSZP - 123.15MHz - 032 384 46 84

Email: Diese E-Mail-Adresse ist vor Spambots geschützt! Zur Anzeige muss JavaScript eingeschaltet sein!
www.lszp.ch
2017 © by mb

Zum Anfang